Temperature
11 11 11 11 11 11 11 11 11 12 11 11 10 10 10 10 10 10 10 11 11 11 11 11 11 11 11 11 11 11 11 11 11 11 11 11 11 11
11 11 11 11 11 11 10 10 10 11 11 10 10 10 10 10 10 10 10 10 11 11 11 11 11 11 11 11 10 10 10 10 10 10 10 10 10 11
11 11 11 10 10 10 10 10 10 10 10 10 9 9 9 9 10 10 10 10 10 10 10 10 10 10 10 10 10 10 10 10 10 10 10 10 10 10
11 11 10 10 10 10 10 10 10 9 9 9 9 9 9 9 9 9 9 9 9 10 10 10 10 10 10 10 10 10 10 10 10 10 10 10 10 10
11 10 10 10 10 10 10 9 9 9 9 9 9 9 9 9 9 9 9 9 9 9 9 9 9 9 9 9 9 9 9 9 9 9 9 9 10 10
10 10 10 10 10 9 9 9 9 9 9 9 9 8 8 9 9 8 8 9 9 9 9 9 9 9 9 9 9 9 9 9 9 9 9 9 9 9
10 10 10 10 10 9 9 9 9 9 8 8 8 8 8 8 8 8 8 8 8 8 8 8 9 9 9 9 9 9 9 9 9 9 9 9 9 9
10 10 10 10 9 9 9 9 9 9 8 8 8 8 8 8 8 8 8 8 8 8 8 8 8 8 8 8 8 8 8 8 8 8 8 8 8 8
10 9 9 9 9 9 9 9 9 9 9 8 8 8 8 8 8 8 8 8 8 8 8 7 8 8 8 8 8 8 8 8 8 8 8 8 8 8
9 9 9 9 9 9 8 8 9 9 8 8 8 8 8 8 8 8 8 7 7 7 7 7 7 7 7 7 8 8 8 8 8 8 8 8 8 8
9 9 9 8 9 9 8 8 8 8 8 8 8 8 8 8 8 7 7 7 7 7 7 7 7 7 7 7 7 7 7 7 8 8 8 8 8 8
8 9 9 8 8 8 8 8 8 8 8 8 8 8 7 7 7 7 7 7 7 7 7 7 6 6 6 7 7 7 7 7 7 7 7 7 7 7
8 8 8 8 8 8 8 8 8 8 7 7 7 7 7 7 7 7 7 6 6 6 7 6 6 6 6 6 6 6 6 7 7 7 7 7 7 7
8 8 8 8 8 8 8 8 8 7 7 7 7 7 6 6 6 6 6 6 6 6 6 6 6 6 6 5 5 6 6 6 6 6 6 6 6 6
7 7 8 8 8 7 7 7 7 7 6 6 6 6 6 6 6 6 6 6 6 6 6 6 6 6 5 5 5 5 5 5 5 5 5 5 6 6
7 7 7 7 7 7 7 7 6 6 6 6 6 6 6 6 6 6 5 5 5 5 5 5 5 5 5 5 5 5 5 5 5 5 5 5 5 5
6 6 6 6 6 6 6 6 6 6 6 5 5 5 5 5 5 5 5 5 5 5 5 5 5 5 5 5 4 4 5 5 5 5 5 5 5 5
6 5 5 5 5 5 5 5 5 5 5 5 5 5 5 5 4 4 4 4 4 4 4 4 4 4 4 4 4 4 4 4 4 4 4 4 4 4
5 5 5 5 5 5 5 5 5 5 5 4 4 4 4 4 4 4 4 4 4 4 4 4 4 4 3 4 4 4 4 4 4 4 4 4 4 4
4 4 4 4 4 4 4 4 4 4 4 4 4 3 4 4 3 3 3 3 3 3 3 3 3 3 3 3 3 4 4 4 4 3 3 3 3 3
4 4 4 4 4 4 4 4 4 3 3 3 3 3 3 3 3 3 3 3 3 3 3 3 3 3 3 3 3 3 3 3 3 3 3 3 3 3
4 4 4 4 4 3 3 3 3 3 3 3 3 3 3 3 2 2 2 2 2 2 2 2 3 3 2 2 2 3 3 3 3 3 3 3 2 2
3 3 3 3 3 3 3 3 3 3 3 3 2 2 2 2 2 2 2 2 2 2 2 2 2 2 2 2 2 2 2 2 2 2 2 2 2 2
Wind_Speed
4 4 3 3 3 3 3 4 4 3 2 1 1 1 1 1 1 1 0 3 2 2 2 2 2 2 2 2 2 3 2 1 1 2 1 1 1 1
3 4 4 3 2 2 3 3 4 4 3 1 1 1 1 1 1 2 1 3 2 2 2 2 2 2 2 2 2 2 1 1 1 1 1 1 1 0
5 5 5 4 3 3 3 3 3 4 4 3 2 1 2 2 1 2 1 2 2 3 2 1 2 2 2 2 2 2 2 1 2 2 1 0 0 1
6 5 5 4 5 4 3 4 4 4 4 3 2 2 2 2 1 1 1 1 1 3 2 2 2 2 2 2 2 2 2 2 2 2 2 1 1 1
6 6 6 5 5 4 4 4 4 4 4 4 3 1 2 2 2 2 1 1 1 1 2 2 2 2 2 1 1 2 2 2 2 2 2 2 2 2
6 6 6 6 6 6 5 5 5 5 4 4 3 3 2 2 2 2 2 2 2 1 1 2 2 3 3 2 2 2 2 2 2 3 3 3 3 3
7 7 7 6 5 5 5 5 5 5 5 5 4 3 3 3 3 3 3 2 2 2 2 2 2 3 3 4 4 3 3 3 3 3 3 4 4 4
7 7 7 7 7 7 6 5 6 6 6 6 5 5 5 4 3 3 3 3 2 2 3 2 2 2 2 2 2 3 3 3 3 3 4 4 5 4
8 7 6 6 8 7 7 8 8 7 7 7 6 6 5 5 5 5 4 4 4 2 3 3 3 3 3 2 3 3 3 4 3 4 4 5 5 6
8 8 7 8 7 8 8 8 8 7 8 8 7 6 5 5 5 5 5 4 4 3 3 4 3 3 3 3 4 4 4 4 4 4 4 5 6 6
8 8 8 8 7 8 8 8 8 6 5 6 5 4 2 3 4 3 4 5 4 4 3 4 3 3 3 3 3 5 5 5 5 5 4 4 5 6
6 6 7 7 7 8 9 8 8 7 6 6 6 5 5 5 7 6 5 5 5 3 3 4 3 3 3 3 2 3 4 6 7 6 5 4 3 4
5 5 4 6 7 8 8 8 7 6 6 6 5 5 4 4 5 5 5 5 5 4 3 4 3 3 3 3 3 3 3 3 4 5 6 6 5 4
5 4 3 5 6 7 7 6 5 6 5 5 5 5 5 4 4 5 5 6 5 5 4 5 4 4 4 4 3 3 3 3 3 3 4 5 6 7
4 2 2 4 5 5 6 6 6 6 6 6 6 5 5 5 4 4 4 4 4 4 4 5 5 4 4 4 4 3 3 3 3 3 3 3 4 4
4 3 4 4 5 4 5 5 5 5 5 6 5 4 3 3 4 4 4 4 4 3 3 4 4 4 4 5 4 4 4 3 3 3 3 3 3 4
3 2 3 3 4 4 4 4 4 5 5 5 4 4 3 4 3 3 4 4 4 4 3 2 3 4 4 4 4 4 4 4 3 3 3 3 3 3
3 4 4 4 4 4 4 4 4 4 4 4 4 4 4 4 4 4 4 4 4 4 4 3 2 2 3 3 4 5 4 4 3 3 3 3 3 3
4 5 5 5 5 5 4 4 4 4 4 4 4 4 4 4 4 4 4 4 4 4 4 3 3 4 5 5 3 4 4 4 3 3 3 3 4 3
5 5 5 5 5 5 4 4 4 4 4 4 4 4 4 4 4 5 5 5 5 4 4 4 4 5 5 5 3 3 4 4 3 3 3 2 2 1
5 5 4 5 5 5 4 4 4 4 4 4 4 4 4 4 5 5 4 5 5 5 5 4 4 5 4 2 3 2 2 2 2 2 2 2 3 3
4 4 4 4 4 4 4 4 4 4 4 4 4 4 4 4 5 5 5 5 5 5 4 3 2 3 3 4 4 3 2 1 0 0 1 2 3 3
4 4 4 4 4 4 4 5 5 4 4 4 4 4 4 4 4 4 4 4 4 4 4 3 2 2 3 3 3 2 2 2 2 1 1 1 2 3
Wind_Direction
238 236 240 243 251 256 260 261 262 260 259 238 243 257 264 274 19 278 238 99 86 58 53 66 82 99 103 106 107 104 101 111 118 104 87 94 97 78
235 241 244 243 239 242 246 252 259 265 263 268 270 280 291 261 290 270 271 122 120 107 92 86 92 95 110 128 126 129 138 158 160 140 111 86 77 80
226 230 233 239 232 227 230 234 237 242 246 258 274 262 261 265 243 260 249 221 159 135 129 130 131 131 119 131 156 151 159 177 187 183 171 142 307 244
230 227 227 220 229 229 224 226 225 229 235 241 249 249 261 263 255 255 243 234 216 126 145 157 160 151 138 134 149 168 187 204 209 207 212 231 254 261
231 228 228 221 221 222 224 227 226 222 226 232 245 250 259 241 231 244 239 240 238 158 167 184 180 169 170 177 182 186 201 222 226 232 238 246 252 260
234 232 232 227 226 226 223 226 224 220 217 224 231 232 239 234 225 227 230 220 230 218 203 197 193 192 199 200 199 197 207 223 229 236 245 255 257 260
236 234 231 230 240 239 234 228 221 220 218 220 227 231 230 218 225 226 232 233 232 219 224 221 205 211 201 200 206 207 207 220 232 239 242 246 250 253
238 238 231 223 221 224 230 236 233 229 225 219 224 228 236 232 227 221 224 228 236 215 232 236 218 224 209 204 167 182 211 227 236 243 246 244 241 246
238 238 235 229 219 223 219 219 225 235 243 239 235 237 239 230 221 221 222 232 244 229 237 240 230 237 222 195 165 200 226 235 245 250 251 249 245 243
236 236 235 230 221 222 223 222 225 226 230 235 241 244 245 239 228 233 236 240 246 224 222 240 239 247 238 220 187 212 230 241 250 253 255 252 247 237
239 234 232 232 217 218 223 224 226 223 214 228 251 266 266 231 221 223 222 220 232 230 221 235 240 246 241 233 208 207 221 230 242 248 249 254 251 237
240 234 224 231 219 211 221 224 227 226 217 215 219 221 226 212 205 213 219 223 231 238 219 227 238 242 242 233 230 219 227 226 227 231 232 239 244 236
239 235 225 212 216 212 228 231 234 233 222 224 224 217 215 214 213 218 222 227 230 241 220 214 233 234 247 262 256 247 244 243 231 230 224 220 219 230
240 239 229 205 216 218 223 230 231 230 225 220 220 218 215 215 219 223 227 227 236 249 233 220 235 234 238 250 263 259 255 250 246 246 236 211 210 221
243 225 213 206 217 221 218 223 222 225 223 221 221 222 222 219 215 218 225 226 233 242 240 230 233 230 234 244 252 257 258 257 254 249 243 232 228 224
234 201 192 204 217 223 217 218 223 225 226 226 224 226 224 216 211 213 216 214 221 231 229 228 233 232 234 240 244 252 255 252 255 253 248 248 236 229
247 235 224 215 216 214 214 216 216 216 223 228 226 219 219 220 218 211 215 216 224 224 217 220 233 236 241 242 240 247 251 258 259 251 247 248 241 233
228 230 229 228 230 228 223 220 218 219 225 226 224 219 220 222 222 218 213 212 219 224 224 220 222 230 235 243 245 246 250 254 258 246 241 245 249 247
229 233 233 231 233 233 233 231 228 224 223 224 224 221 219 220 223 221 219 217 222 224 224 216 218 226 234 243 228 231 251 253 248 235 233 242 253 252
238 239 241 240 238 237 237 239 238 230 226 226 226 226 223 219 221 221 220 217 218 221 224 220 222 231 239 249 258 264 250 252 241 238 240 252 267 281
245 244 245 245 242 238 236 235 235 236 232 226 223 222 224 222 221 220 221 217 222 224 226 229 236 240 255 251 244 254 268 238 247 250 251 248 255 253
254 251 246 246 245 239 236 232 232 232 227 224 223 220 218 222 222 220 220 222 225 229 237 235 221 220 226 228 235 243 263 275 267 210 276 272 261 248
259 254 252 248 245 242 237 230 229 227 223 222 220 222 218 216 216 216 218 221 221 222 225 220 215 221 226 228 233 238 244 264 272 260 278 250 251 271
Height
1526 1526 1526 1526 1526 1526 1526 1526 1527 1526 1526 1525 1524 1523 1523 1523 1522 1521 1521 1521 1521 1521 1521 1521 1522 1522 1522 1523 1523 1524 1524 1524 1525 1525 1525 1525 1525 1526
1524 1524 1524 1524 1523 1523 1523 1524 1524 1525 1524 1523 1523 1522 1521 1521 1520 1520 1520 1520 1520 1520 1520 1520 1520 1520 1521 1521 1522 1522 1522 1522 1523 1523 1523 1523 1523 1524
1521 1521 1521 1520 1521 1521 1520 1521 1521 1522 1521 1521 1521 1520 1519 1519 1519 1518 1518 1518 1518 1518 1519 1519 1519 1519 1519 1519 1520 1520 1520 1521 1521 1521 1521 1521 1521 1522
1518 1518 1517 1517 1518 1518 1518 1518 1518 1519 1519 1519 1519 1518 1518 1518 1517 1517 1517 1516 1517 1517 1517 1517 1517 1517 1517 1517 1518 1518 1518 1518 1518 1519 1519 1519 1519 1519
1515 1514 1514 1515 1515 1515 1515 1515 1516 1516 1516 1516 1516 1516 1516 1516 1515 1515 1515 1515 1515 1515 1515 1515 1515 1515 1515 1516 1516 1516 1516 1516 1516 1516 1516 1516 1516 1516
1511 1511 1511 1511 1511 1512 1512 1512 1513 1513 1513 1514 1514 1513 1513 1513 1513 1513 1513 1514 1514 1514 1514 1514 1513 1513 1513 1514 1514 1514 1514 1514 1514 1513 1513 1513 1513 1513
1507 1507 1507 1507 1507 1508 1508 1509 1510 1510 1510 1510 1511 1511 1511 1510 1510 1511 1511 1512 1512 1512 1512 1512 1511 1511 1511 1511 1511 1511 1511 1511 1511 1511 1510 1510 1510 1510
1503 1503 1503 1503 1503 1504 1504 1505 1505 1506 1507 1507 1507 1507 1508 1508 1508 1508 1509 1509 1510 1510 1509 1510 1509 1509 1509 1509 1509 1508 1508 1508 1508 1507 1507 1507 1507 1507
1498 1499 1499 1499 1499 1500 1500 1501 1501 1502 1503 1503 1504 1504 1504 1505 1505 1505 1506 1506 1507 1507 1507 1507 1507 1506 1506 1506 1506 1506 1505 1505 1504 1504 1503 1503 1503 1503
1493 1494 1494 1494 1495 1495 1496 1497 1497 1497 1498 1499 1499 1500 1501 1501 1502 1503 1503 1503 1504 1504 1504 1504 1504 1504 1503 1503 1503 1503 1502 1501 1501 1500 1500 1500 1499 1499
1488 1489 1489 1490 1490 1491 1492 1493 1493 1493 1494 1494 1495 1496 1496 1497 1498 1498 1499 1500 1500 1500 1501 1501 1501 1500 1500 1500 1499 1499 1499 1498 1497 1497 1497 1496 1496 1496
1484 1484 1484 1485 1486 1486 1488 1488 1488 1489 1490 1490 1491 1492 1492 1493 1494 1494 1495 1496 1497 1497 1497 1497 1497 1498 1498 1497 1496 1495 1495 1494 1494 1494 1493 1493 1493 1493
1479 1479 1479 1480 1481 1482 1483 1484 1484 1485 1486 1486 1487 1487 1488 1489 1489 1490 1491 1492 1493 1493 1494 1493 1494 1494 1495 1494 1493 1492 1492 1491 1491 1490 1490 1490 1490 1490
1474 1475 1475 1476 1477 1477 1478 1479 1480 1481 1481 1482 1482 1482 1483 1484 1485 1486 1487 1487 1488 1489 1489 1490 1490 1490 1490 1490 1490 1489 1489 1488 1488 1487 1487 1487 1487 1487
1470 1470 1470 1471 1472 1473 1473 1474 1475 1476 1476 1476 1477 1478 1478 1479 1480 1481 1482 1483 1484 1484 1485 1485 1486 1486 1487 1487 1486 1486 1486 1485 1485 1484 1484 1484 1484 1484
1465 1465 1466 1467 1467 1468 1469 1469 1470 1471 1472 1472 1472 1473 1474 1474 1475 1476 1477 1478 1479 1479 1480 1481 1481 1482 1482 1482 1482 1482 1482 1482 1481 1481 1481 1481 1481 1481
1461 1461 1462 1462 1463 1463 1464 1464 1465 1466 1467 1468 1468 1469 1469 1470 1470 1471 1472 1473 1474 1474 1475 1476 1476 1477 1478 1478 1478 1478 1478 1478 1478 1478 1477 1477 1477 1478
1456 1457 1457 1458 1459 1459 1460 1460 1461 1461 1462 1463 1464 1464 1465 1465 1466 1466 1467 1468 1469 1470 1470 1471 1472 1473 1473 1473 1474 1474 1474 1474 1474 1474 1474 1474 1474 1474
1452 1453 1454 1454 1455 1455 1456 1456 1457 1457 1458 1458 1459 1459 1460 1461 1461 1462 1463 1463 1464 1465 1466 1467 1467 1468 1469 1469 1469 1470 1470 1470 1470 1470 1470 1470 1471 1471
1448 1449 1450 1450 1451 1451 1451 1452 1452 1453 1453 1454 1454 1455 1455 1456 1457 1457 1458 1459 1460 1461 1462 1463 1463 1464 1465 1466 1466 1466 1466 1466 1466 1466 1466 1467 1467 1467
1445 1445 1446 1446 1446 1447 1447 1448 1448 1448 1449 1449 1450 1450 1451 1452 1452 1453 1454 1455 1456 1457 1458 1458 1459 1461 1461 1462 1462 1462 1462 1462 1462 1463 1463 1463 1463 1463
1441 1442 1442 1442 1442 1442 1443 1443 1443 1444 1444 1445 1445 1446 1447 1448 1448 1449 1450 1451 1452 1453 1454 1455 1456 1457 1457 1458 1458 1459 1459 1459 1459 1460 1460 1460 1460 1460
1437 1438 1437 1437 1438 1438 1438 1438 1439 1439 1440 1441 1441 1442 1443 1444 1444 1445 1446 1447 1448 1449 1450 1452 1453 1453 1454 1455 1455 1455 1455 1456 1456 1456 1457 1457 1457 1457